Yulin, China
Current Conditions -  °F | °C
As of 1:00 AM on Friday 31 Oct 2014 (Local Time) from ZBYN Reporting Station
Haze Haze  
Wind Chill: 52°   Ceiling: Unl
Heat Index: 52°   Visibility: 2.5mi
Dew Point: 43°   Wind: 7mph
Humidity: 71%   Direction: 90°E
Pressure: 30.15"   Gusts: NA
Location:  38.23°N, 109.7°E
Report Text: ZBYN 301700Z 09003MPS 4000 HZ NSC 11/06 Q1021 NOSIG
Loading
Personal Weather Stations






























Interactive Weather Map
Tropical Storm Tracking
New forecast layout! Learn more

10-Day Weather Forecast

Advertisements
Track Severe Weather on mobile